Startseite
Über Mich
AHP4
Galerie
Sehschlangen
Tourenbuch
Bookmarks
Elektronik
Bewertung
Geschichten
[Tagesmessung] [Jahreswerte] [Information]

Messwerte vom 12.01.2022

Die letzten Messwerte von 23:58:46 Uhr:
KategorieMesswert
Temperatur [°C]2
Luftdruck [mBar]1021
Sonneneinstrahlung0
Wind [km/h]6 aus West
Niederschlag [l/m²]0
rel.Luftfeucht.96.6%
CO2 [ppm]884

Diagramme
Messwerte vom 12.01.2022
Tagesaggregation
KategorieMinimumMaximumSchnittSumme
Temperatur [°C]042.4583
Luftdruck [mBar]101710221020.1438
Sonneneinstrahlung18847.5896
Wind [km/h]17
rF [%]96.696.696.6
Niederschlag [l/m²]0
CO2 [ppm]401884596.6
Einordnung alsKalter Tag

Messungen an benachbarten Tagen: Zur Jahresaggregation 2022
Tabelle aller Messwerte
UhrzeitTemperatur [°C]Luftdruck [mBar]SonneWind [km/h]RichtungRegen [l/m²]rF [%]CO2 [ppm]
00:01:47 0 1019 0 0 N 0 96.6 515
00:04:47 0 1019 0 0 0 96.6 512
00:07:47 0 1020 0 0 SO 0 96.6 509
00:10:48 0 1019 0 0 SO 0 96.6 506
00:13:47 0 1019 0 0 SO 0 96.6 509
00:16:48 0 1018 0 0 NO 0 96.6 506
00:19:47 0 1019 0 0 NO 0 96.6 509
00:22:48 0 1019 0 0 SO 0 96.6 509
00:25:50 0 1018 0 0 SO 0 96.6 509
00:28:48 0 1019 0 0 NO 0 96.6 512
00:31:47 0 1019 0 0 NO 0 96.6 515
00:34:45 0 1018 0 0 O 0 96.6 521
00:37:44 0 1019 0 0 O 0 96.6 527
00:40:46 0 1019 0 0 O 0 96.6 526
00:43:46 0 1019 0 0 O 0 96.6 524
00:46:46 0 1018 0 0 O 0 96.6 526
00:49:46 0 1019 0 0 O 0 96.6 523
00:52:46 0 1018 0 0 O 0 96.6 521
00:55:46 0 1019 0 0 O 0 96.6 521
00:58:45 0 1019 0 0 O 0 96.6 518
01:01:47 0 1019 0 0 NO 0 96.6 521
01:04:46 0 1018 0 0 O 0 96.6 527
01:07:50 0 1019 0 0 SO 0 96.6 524
01:10:50 0 1019 0 0 NO 0 96.6 529
01:13:48 0 1018 0 0 NO 0 96.6 532
01:16:45 0 1019 0 0 NO 0 96.6 530
01:19:46 1 1019 0 0 NO 0 96.6 529
01:22:48 1 1018 0 0 NO 0 96.6 527
01:25:48 1 1018 0 0 NO 0 96.6 530
01:28:47 1 1019 0 0 NO 0 96.6 523
01:31:46 1 1018 0 0 S 0 96.6 526
01:34:46 1 1019 0 0 S 0 96.6 526
01:37:46 1 1019 0 0 S 0 96.6 529
01:40:46 1 1018 0 0 S 0 96.6 524
01:43:47 1 1019 0 0 S 0 96.6 524
01:46:45 1 1018 0 0 S 0 96.6 529
01:49:47 1 1018 0 0 S 0 96.6 532
01:52:47 1 1019 0 0 S 0 96.6 530
01:55:47 1 1019 0 0 S 0 96.6 528
01:58:46 1 1019 0 0 S 0 96.6 524
02:01:46 1 1018 0 0 S 0 96.6 521
02:04:46 1 1019 0 0 O 0 96.6 519
02:07:46 1 1018 0 0 O 0 96.6 527
02:10:46 1 1018 0 0 O 0 96.6 532
02:13:46 1 1018 0 0 O 0 96.6 531
02:16:45 1 1018 0 0 O 0 96.6 530
02:19:47 1 1017 0 0 O 0 96.6 519
02:22:48 1 1018 0 0 SW 0 96.6 524
02:25:45 1 1017 0 2 S 0 96.6 524
02:28:47 1 1018 0 0 SW 0 96.6 531
02:31:47 1 1018 0 0 SW 0 96.6 533
02:34:47 1 1019 0 0 SW 0 96.6 533
02:37:47 1 1018 0 0 SO 0 96.6 530
02:40:47 1 1019 0 0 SO 0 96.6 521
02:43:47 1 1018 0 0 NW 0 96.6 522
02:46:47 1 1019 0 1 NW 0 96.6 524
02:49:46 1 1019 0 0 W 0 96.6 528
02:52:49 1 1018 0 0 NW 0 96.6 526
02:55:47 1 1019 0 0 NW 0 96.6 521
02:58:47 1 1019 0 1 W 0 96.6 521
03:01:47 1 1018 0 0 SW 0 96.6 525
03:04:47 1 1019 0 1 SW 0 96.6 524
03:07:45 1 1019 0 1 SW 0 96.6 524
03:10:46 1 1019 0 1 NW 0 96.6 513
03:13:46 1 1019 0 1 NW 0 96.6 527
03:16:48 1 1019 0 0 SO 0 96.6 525
03:19:47 1 1019 0 0 S 0 96.6 534
03:22:44 1 1018 0 0 S 0 96.6 527
03:25:47 1 1019 0 0 NW 0 96.6 536
03:28:46 1 1019 0 0 S 0 96.6 536
03:31:46 1 1019 0 0 S 0 96.6 534
03:34:46 1 1019 0 3 W 0 96.6 533
03:37:49 1 1019 0 0 S 0 96.6 529
03:40:47 1 1019 0 0 NW 0 96.6 528
03:43:48 1 1019 0 0 S 0 96.6 530
03:46:46 1 1019 0 0 SO 0 96.6 530
03:49:48 1 1019 0 0 S 0 96.6 536
03:52:46 1 1019 0 1 W 0 96.6 536
03:55:47 1 1019 0 0 O 0 96.6 529
03:58:45 1 1018 0 0 O 0 96.6 534
04:01:46 1 1019 0 0 NW 0 96.6 536
04:04:43 1 1019 0 0 O 0 96.6 533
04:07:44 1 1019 0 0 S 0 96.6 534
04:10:47 1 1019 0 0 SW 0 96.6 534
04:13:46 1 1019 0 0 SW 0 96.6 533
04:16:46 1 1019 0 0 SO 0 96.6 527
04:19:48 1 1019 0 0 SO 0 96.6 524
04:22:46 1 1020 0 0 S 0 96.6 529
04:25:47 1 1019 0 1 SO 0 96.6 539
04:28:46 1 1019 0 0 S 0 96.6 536
04:31:47 1 1019 0 0 SW 0 96.6 539
04:34:47 1 1019 0 0 SW 0 96.6 536
04:37:45 1 1019 0 1 NW 0 96.6 530
04:40:47 1 1019 0 2 SW 0 96.6 525
04:43:47 1 1019 0 0 SW 0 96.6 524
04:46:46 1 1018 0 0 SW 0 96.6 533
04:49:47 1 1019 0 0 NW 0 96.6 539
04:52:47 1 1018 0 2 SW 0 96.6 533
04:55:46 1 1019 0 1 W 0 96.6 530
04:58:46 1 1018 0 2 NW 0 96.6 524
05:01:45 1 1019 0 1 NW 0 96.6 527
05:04:48 1 1018 0 1 NW 0 96.6 527
05:07:48 1 1019 0 0 NW 0 96.6 527
05:10:47 1 1019 0 1 SW 0 96.6 529
05:13:46 1 1019 0 1 W 0 96.6 528
05:16:47 1 1018 0 0 SW 0 96.6 530
05:19:46 1 1018 0 0 SO 0 96.6 527
05:22:45 1 1019 0 0 W 0 96.6 527
05:25:47 2 1019 0 0 W 0 96.6 524
05:28:45 2 1018 0 0 S 0 96.6 530
05:31:46 2 1018 0 0 O 0 96.6 524
05:34:48 2 1018 0 0 SW 0 96.6 527
05:37:46 2 1019 0 0 S 0 96.6 524
05:40:47 2 1019 0 2 W 0 96.6 518
05:43:46 2 1019 0 3 W 0 96.6 516
05:46:44 2 1019 0 1 W 0 96.6 515
05:49:47 2 1018 0 0 SW 0 96.6 521
05:52:49 2 1019 0 2 NW 0 96.6 527
05:55:47 2 1019 0 2 SW 0 96.6 533
05:58:49 2 1019 0 0 NW 0 96.6 533
06:01:46 2 1019 0 1 W 0 96.6 530
06:04:46 2 1018 0 2 W 0 96.6 533
06:07:45 2 1019 0 2 S 0 96.6 538
06:10:47 2 1018 0 0 SW 0 96.6 539
06:13:46 2 1018 0 2 W 0 96.6 538
06:16:45 2 1018 0 0 W 0 96.6 541
06:19:48 2 1018 0 0 W 0 96.6 536
06:22:45 2 1019 0 0 W 0 96.6 530
06:25:46 2 1019 0 0 W 0 96.6 527
06:28:46 2 1019 0 1 SW 0 96.6 527
06:31:47 2 1019 0 0 SO 0 96.6 530
06:34:46 2 1018 0 2 W 0 96.6 530
06:37:49 2 1019 0 1 SW 0 96.6 530
06:40:46 2 1019 0 1 SO 0 96.6 525
06:43:48 2 1019 0 4 SW 0 96.6 537
06:46:45 2 1019 0 5 W 0 96.6 536
06:49:48 2 1019 0 0 SW 0 96.6 531
06:52:46 2 1019 0 3 SW 0 96.6 531
06:55:47 2 1019 0 1 W 0 96.6 536
06:58:49 2 1019 0 1 SO 0 96.6 538
07:01:46 2 1019 0 0 O 0 96.6 542
07:04:47 2 1019 0 0 S 0 96.6 539
07:07:47 2 1019 0 0 SW 0 96.6 527
07:10:47 2 1019 0 0 S 0 96.6 524
07:13:45 2 1019 0 0 O 0 96.6 524
07:16:48 2 1019 0 2 SO 0 96.6 520
07:19:50 2 1019 0 0 SO 0 96.6 519
07:22:47 2 1018 0 1 SW 0 96.6 527
07:25:47 2 1019 0 0 SO 0 96.6 540
07:28:45 2 1019 0 3 O 0 96.6 550
07:31:46 2 1019 0 2 S 0 96.6 559
07:34:48 2 1019 0 3 SO 0 96.6 570
07:37:46 2 1019 0 0 S 0 96.6 583
07:40:47 2 1020 0 0 S 0 96.6 589
07:43:46 2 1019 0 1 S 0 96.6 583
07:46:47 2 1019 0 3 W 0 96.6 583
07:49:46 2 1020 0 0 S 0 96.6 580
07:52:48 2 1020 0 0 SO 0 96.6 583
07:55:46 2 1019 4 0 S 0 96.6 582
07:58:45 2 1019 6 0 N 0 96.6 589
08:01:49 2 1019 9 0 SW 0 96.6 592
08:04:48 2 1019 12 0 SW 0 96.6 594
08:07:48 2 1019 18 0 O 0 96.6 603
08:10:52 2 1020 23 1 W 0 96.6 603
08:13:49 2 1019 30 0 N 0 96.6 603
08:16:51 2 1019 31 2 NW 0 96.6 600
08:19:49 2 1020 35 1 W 0 96.6 600
08:22:47 2 1019 40 2 W 0 96.6 598
08:25:48 2 1020 40 4 S 0 96.6 604
08:28:48 2 1020 43 2 W 0 96.6 609
08:31:47 2 1020 48 1 S 0 96.6 606
08:34:51 2 1020 55 0 NW 0 96.6 603
08:37:49 2 1020 60 2 W 0 96.6 609
08:40:51 2 1020 64 1 SW 0 96.6 614
08:43:50 2 1020 72 4 SW 0 96.6 612
08:46:47 2 1021 77 2 W 0 96.6 604
08:49:49 2 1020 81 2 W 0 96.6 601
08:52:50 2 1020 83 2 W 0 96.6 600
08:55:50 2 1019 89 5 SW 0 96.6 609
08:58:48 2 1020 97 2 W 0 96.6 615
09:01:48 2 1020 99 2 W 0 96.6 603
09:04:50 2 1020 107 5 NW 0 96.6 603
09:07:49 2 1020 109 6 NW 0 96.6 604
09:10:50 2 1020 114 7 SW 0 96.6 603
09:13:50 2 1020 119 0 SW 0 96.6 606
09:16:48 2 1021 122 1 O 0 96.6 609
09:19:50 2 1020 121 2 SW 0 96.6 609
09:22:50 2 1020 124 6 SW 0 96.6 613
09:25:46 2 1020 125 3 W 0 96.6 615
09:28:47 2 1021 130 2 S 0 96.6 618
09:31:48 2 1020 129 0 S 0 96.6 615
09:34:47 2 1021 138 0 W 0 96.6 616
09:37:48 2 1020 138 3 W 0 96.6 616
09:40:50 2 1020 144 0 SO 0 96.6 616
09:43:47 2 1021 148 2 W 0 96.6 615
09:46:48 3 1021 148 6 W 0 96.6 621
09:49:48 3 1020 149 3 W 0 96.6 626
09:52:47 3 1020 149 1 SW 0 96.6 632
09:55:48 3 1021 155 3 W 0 96.6 639
09:58:50 3 1021 159 2 SW 0 96.6 639
10:01:49 3 1020 160 1 SO 0 96.6 639
10:04:48 3 1021 159 2 N 0 96.6 639
10:07:48 3 1021 165 1 SO 0 96.6 641
10:10:48 3 1021 170 1 NW 0 96.6 644
10:13:47 3 1020 171 5 W 0 96.6 648
10:16:47 3 1020 166 0 S 0 96.6 651
10:19:50 3 1020 170 2 NW 0 96.6 658
10:22:49 3 1020 174 0 N 0 96.6 668
10:25:49 3 1021 172 8 SO 0 96.6 662
10:28:47 3 1020 173 0 SO 0 96.6 653
10:31:47 3 1021 168 1 S 0 96.6 663
10:34:46 3 1021 168 5 W 0 96.6 659
10:37:48 3 1021 168 1 SW 0 96.6 660
10:40:46 3 1021 170 3 S 0 96.6 653
10:43:48 3 1021 171 2 NO 0 96.6 650
10:46:46 3 1021 167 3 W 0 96.6 641
10:49:45 3 1021 164 0 W 0 96.6 646
10:52:47 3 1020 162 3 W 0 96.6 644
10:55:47 3 1021 167 4 SW 0 96.6 644
10:58:48 3 1021 162 4 SW 0 96.6 647
11:01:51 3 1021 161 2 NW 0 96.6 653
11:04:48 3 1020 164 3 SW 0 96.6 659
11:07:50 3 1021 160 3 NW 0 96.6 657
11:10:48 3 1021 167 2 SW 0 96.6 648
11:13:49 3 1021 172 6 SW 0 96.6 638
11:16:48 3 1021 173 3 SW 0 96.6 647
11:19:48 3 1021 170 2 SO 0 96.6 649
11:22:44 3 1021 166 3 S 0 96.6 650
11:25:47 3 1020 164 2 SW 0 96.6 656
11:28:46 3 1021 158 3 SW 0 96.6 655
11:31:47 3 1021 163 0 S 0 96.6 653
11:34:47 3 1020 167 1 O 0 96.6 656
11:37:49 3 1021 170 2 NW 0 96.6 661
11:40:48 3 1021 171 2 W 0 96.6 661
11:43:47 3 1021 169 3 SW 0 96.6 668
11:46:48 3 1021 174 3 S 0 96.6 667
11:49:49 3 1021 178 6 S 0 96.6 668
11:52:49 3 1021 179 2 NW 0 96.6 662
11:55:45 3 1021 181 1 W 0 96.6 656
11:58:48 3 1021 177 1 W 0 96.6 656
12:01:50 3 1021 183 2 W 0 96.6 668
12:04:47 3 1020 188 7 W 0 96.6 668
12:07:49 3 1021 187 2 W 0 96.6 666
12:10:48 4 1020 181 3 NW 0 96.6 650
12:13:48 4 1021 175 4 SW 0 96.6 649
12:16:50 3 1020 168 3 SW 0 96.6 647
12:19:48 3 1021 180 2 W 0 96.6 656
12:22:50 3 1021 184 12 W 0 96.6 656
12:25:48 3 1021 186 6 NO 0 96.6 662
12:28:48 3 1021 182 1 SW 0 96.6 665
12:31:48 4 1021 182 7 W 0 96.6 675
12:34:48 4 1021 183 4 W 0 96.6 674
12:37:52 4 1021 187 4 SW 0 96.6 668
12:40:50 4 1021 180 3 SW 0 96.6 658
12:43:48 4 1021 177 5 N 0 96.6 662
12:46:46 4 1021 174 4 W 0 96.6 670
12:49:48 4 1021 174 6 S 0 96.6 668
12:52:47 4 1021 175 4 NW 0 96.6 669
12:55:46 4 1021 177 2 W 0 96.6 671
12:58:50 4 1021 159 6 SW 0 96.6 679
13:01:49 3 1021 167 4 S 0 96.6 676
13:04:47 3 1021 172 3 W 0 96.6 659
13:07:48 3 1021 163 5 SW 0 96.6 662
13:10:50 4 1021 169 4 SW 0 96.6 662
13:13:49 4 1021 175 3 SW 0 96.6 668
13:16:50 4 1021 173 1 SW 0 96.6 668
13:19:47 4 1021 170 4 SW 0 96.6 669
13:22:46 4 1021 166 4 SW 0 96.6 671
13:25:54 4 1020 171 5 SW 0 96.6 676
13:28:46 4 1021 167 6 SW 0 96.6 677
13:31:50 4 1021 166 3 SW 0 96.6 679
13:34:49 4 1021 167 5 W 0 96.6 680
13:37:50 4 1021 165 2 W 0 96.6 683
13:40:48 4 1021 165 8 W 0 96.6 679
13:43:49 4 1021 168 5 SW 0 96.6 680
13:46:47 4 1021 169 3 W 0 96.6 677
13:49:47 4 1021 169 3 NO 0 96.6 680
13:52:48 4 1021 162 4 SW 0 96.6 675
13:55:47 4 1021 163 1 S 0 96.6 665
13:58:49 4 1021 164 9 W 0 96.6 671
14:01:49 4 1021 160 0 SW 0 96.6 676
14:04:46 4 1021 154 5 W 0 96.6 674
14:07:49 4 1021 151 6 SW 0 96.6 685
14:10:46 4 1021 154 4 W 0 96.6 688
14:13:47 4 1021 151 3 N 0 96.6 691
14:16:49 4 1021 144 7 NW 0 96.6 679
14:19:47 4 1021 139 3 W 0 96.6 684
14:22:48 4 1021 139 6 NW 0 96.6 679
14:25:46 4 1021 139 5 W 0 96.6 674
14:28:46 4 1021 136 3 W 0 96.6 674
14:31:48 4 1020 141 12 W 0 96.6 669
14:34:47 4 1021 148 3 O 0 96.6 650
14:37:48 4 1021 143 7 SW 0 96.6 648
14:40:48 3 1021 137 3 SW 0 96.6 647
14:43:46 3 1021 134 7 W 0 96.6 641
14:46:49 3 1021 138 5 SW 0 96.6 651
14:49:48 3 1021 135 2 SW 0 96.6 656
14:52:48 3 1020 133 1 N 0 96.6 662
14:55:49 3 1021 125 3 W 0 96.6 662
14:58:49 3 1021 127 3 SW 0 96.6 661
15:01:47 3 1021 131 3 W 0 96.6 668
15:04:49 3 1021 123 1 SW 0 96.6 670
15:07:46 3 1020 123 5 0 96.6 677
15:10:50 3 1020 118 1 W 0 96.6 680
15:13:48 3 1021 120 4 SW 0 96.6 680
15:16:47 3 1021 122 4 W 0 96.6 674
15:19:48 3 1021 123 3 0 96.6 665
15:22:48 3 1021 117 7 NW 0 96.6 668
15:25:46 3 1021 110 3 W 0 96.6 671
15:28:51 3 1021 108 6 NW 0 96.6 663
15:31:48 3 1021 103 3 SW 0 96.6 653
15:34:47 3 1021 99 3 SW 0 96.6 662
15:37:47 3 1021 97 4 SO 0 96.6 662
15:40:50 3 1021 102 4 S 0 96.6 657
15:43:48 3 1021 104 3 SW 0 96.6 656
15:46:48 3 1020 98 4 NW 0 96.6 665
15:49:48 3 1021 92 3 W 0 96.6 674
15:52:45 3 1021 87 4 W 0 96.6 677
15:55:47 3 1021 79 1 SW 0 96.6 679
15:58:46 3 1021 82 2 W 0 96.6 679
16:01:48 3 1021 81 7 NW 0 96.6 676
16:04:46 3 1021 74 1 SW 0 96.6 677
16:07:48 3 1021 69 5 S 0 96.6 676
16:10:49 3 1021 26 6 SW 0 96.6 662
16:13:49 3 1021 25 8 NW 0 96.6 407
16:16:46 3 1021 51 0 S 0 96.6 401
16:19:47 3 1021 45 4 SW 0 96.6 408
16:22:46 3 1021 40 3 SW 0 96.6 404
16:25:46 3 1021 34 0 W 0 96.6 407
16:28:45 3 1021 31 2 W 0 96.6 404
16:31:46 3 1021 24 5 S 0 96.6 404
16:34:49 3 1021 19 3 NW 0 96.6 407
16:37:45 3 1021 16 1 S 0 96.6 404
16:40:46 3 1021 12 4 SW 0 96.6 407
16:43:46 3 1021 8 4 NW 0 96.6 404
16:46:47 3 1021 6 6 W 0 96.6 407
16:49:47 3 1021 5 2 SW 0 96.6 408
16:52:47 3 1021 3 2 W 0 96.6 407
16:55:46 3 1021 0 7 NW 0 96.6 401
16:58:47 3 1021 0 2 SW 0 96.6 404
17:01:48 3 1021 0 3 SW 0 96.6 407
17:04:48 3 1021 0 2 W 0 96.6 406
17:07:45 3 1021 0 5 SO 0 96.6 404
17:10:46 3 1021 0 4 W 0 96.6 404
17:13:46 3 1021 0 1 W 0 96.6 407
17:16:47 3 1021 0 0 S 0 96.6 404
17:19:47 3 1021 0 3 S 0 96.6 410
17:22:45 3 1021 0 1 S 0 96.6 412
17:25:47 3 1021 0 3 S 0 96.6 422
17:28:45 3 1021 0 2 SW 0 96.6 421
17:31:48 3 1021 0 3 SW 0 96.6 436
17:34:47 3 1021 0 4 W 0 96.6 437
17:37:46 3 1021 0 0 SW 0 96.6 439
17:40:46 3 1021 0 0 SW 0 96.6 424
17:43:44 3 1021 0 1 SW 0 96.6 421
17:46:48 3 1021 0 3 W 0 96.6 415
17:49:46 3 1021 0 0 SW 0 96.6 442
17:52:47 3 1021 0 2 S 0 96.6 448
17:55:45 3 1021 0 2 W 0 96.6 451
17:58:47 3 1021 0 4 SW 0 96.6 455
18:01:50 3 1021 0 4 NW 0 96.6 455
18:04:46 3 1021 0 5 W 0 96.6 457
18:07:49 3 1021 0 4 NW 0 96.6 463
18:10:46 3 1021 0 0 O 0 96.6 466
18:13:46 3 1021 0 0 SW 0 96.6 454
18:16:50 3 1021 0 2 SW 0 96.6 457
18:19:47 3 1021 0 2 SW 0 96.6 460
18:22:47 3 1021 0 2 SW 0 96.6 481
18:25:46 3 1021 0 1 W 0 96.6 490
18:28:47 3 1021 0 2 SW 0 96.6 492
18:31:46 3 1021 0 4 W 0 96.6 503
18:34:46 3 1021 0 3 SW 0 96.6 510
18:37:47 3 1021 0 9 S 0 96.6 516
18:40:48 4 1021 0 8 NW 0 96.6 524
18:43:46 4 1021 0 5 SW 0 96.6 531
18:46:47 4 1021 0 3 O 0 96.6 530
18:49:49 4 1021 0 4 NW 0 96.6 542
18:52:47 4 1021 0 3 W 0 96.6 557
18:55:45 4 1021 0 2 SW 0 96.6 571
18:58:47 4 1021 0 4 W 0 96.6 572
19:01:48 4 1021 0 2 W 0 96.6 574
19:04:46 4 1021 0 2 W 0 96.6 583
19:07:47 4 1021 0 1 SW 0 96.6 592
19:10:48 4 1021 0 2 W 0 96.6 589
19:13:46 4 1021 0 1 SW 0 96.6 594
19:16:47 3 1021 0 0 SO 0 96.6 604
19:19:50 3 1021 0 2 NW 0 96.6 600
19:22:48 3 1021 0 1 SW 0 96.6 589
19:25:46 3 1021 0 1 SW 0 96.6 572
19:28:46 3 1021 0 2 SW 0 96.6 576
19:31:47 3 1021 0 3 NW 0 96.6 571
19:34:47 3 1021 0 3 W 0 96.6 573
19:37:47 3 1021 0 0 SW 0 96.6 572
19:40:48 3 1021 0 3 NW 0 96.6 574
19:43:46 3 1021 0 3 SW 0 96.6 568
19:46:46 3 1021 0 4 W 0 96.6 553
19:49:48 3 1021 0 2 SO 0 96.6 549
19:52:47 3 1021 0 1 W 0 96.6 536
19:55:45 3 1021 0 0 O 0 96.6 533
19:58:47 3 1021 0 0 NW 0 96.6 530
20:01:47 3 1021 0 0 SW 0 96.6 530
20:04:47 3 1021 0 1 SW 0 96.6 533
20:07:48 3 1021 0 0 SO 0 96.6 538
20:10:48 3 1021 0 8 SW 0 96.6 536
20:13:48 3 1021 0 7 W 0 96.6 527
20:16:47 3 1021 0 3 SW 0 96.6 522
20:19:47 3 1021 0 6 W 0 96.6 512
20:22:47 3 1021 0 4 S 0 96.6 509
20:25:46 4 1021 0 4 N 0 96.6 513
20:28:47 4 1022 0 2 W 0 96.6 527
20:31:49 4 1021 0 4 W 0 96.6 586
20:34:49 4 1021 0 13 W 0 96.6 585
20:37:49 4 1022 0 10 W 0 96.6 586
20:40:47 4 1022 0 5 SW 0 96.6 593
20:43:48 4 1021 0 3 S 0 96.6 609
20:46:47 4 1022 0 17 SW 0 96.6 618
20:49:50 4 1021 0 9 SW 0 96.6 624
20:52:47 4 1022 0 2 W 0 96.6 620
20:55:48 4 1021 0 7 S 0 96.6 629
20:58:49 4 1022 0 5 W 0 96.6 639
21:01:48 4 1021 0 4 SO 0 96.6 644
21:04:47 4 1021 0 3 NW 0 96.6 656
21:07:47 4 1021 0 8 SW 0 96.6 665
21:10:46 4 1022 0 4 SO 0 96.6 674
21:13:48 4 1022 0 5 SW 0 96.6 679
21:16:47 4 1021 0 9 N 0 96.6 682
21:19:45 4 1021 0 4 W 0 96.6 676
21:22:47 4 1021 0 5 SW 0 96.6 685
21:25:47 4 1021 0 8 S 0 96.6 695
21:28:48 4 1021 0 3 NW 0 96.6 701
21:31:46 4 1021 0 4 W 0 96.6 706
21:34:46 4 1021 0 2 SW 0 96.6 723
21:37:46 4 1022 0 5 S 0 96.6 726
21:40:47 4 1021 0 6 NW 0 96.6 727
21:43:47 4 1021 0 4 W 0 96.6 726
21:46:46 4 1021 0 4 W 0 96.6 730
21:49:46 4 1021 0 3 NO 0 96.6 736
21:52:47 3 1021 0 7 S 0 96.6 741
21:55:44 3 1021 0 1 W 0 96.6 746
21:58:47 3 1021 0 6 S 0 96.6 746
22:01:49 3 1021 0 4 SO 0 96.6 755
22:04:44 3 1021 0 2 W 0 96.6 757
22:07:47 3 1021 0 4 W 0 96.6 758
22:10:45 3 1021 0 4 W 0 96.6 747
22:13:46 3 1021 0 7 W 0 96.6 753
22:16:49 3 1021 0 3 NW 0 96.6 759
22:19:49 3 1021 0 6 SW 0 96.6 764
22:22:46 3 1021 0 7 SW 0 96.6 764
22:25:47 3 1022 0 5 SW 0 96.6 770
22:28:48 3 1021 0 5 SW 0 96.6 789
22:31:47 3 1021 0 8 W 0 96.6 796
22:34:49 3 1021 0 1 NO 0 96.6 802
22:37:49 3 1021 0 2 O 0 96.6 805
22:40:50 3 1021 0 5 NW 0 96.6 808
22:43:48 3 1021 0 8 W 0 96.6 819
22:46:47 3 1021 0 1 O 0 96.6 820
22:49:51 3 1021 0 0 NW 0 96.6 820
22:52:48 3 1021 0 2 NW 0 96.6 824
22:55:48 3 1021 0 3 SW 0 96.6 826
22:58:48 3 1021 0 4 NW 0 96.6 830
23:01:46 3 1021 0 4 W 0 96.6 832
23:04:47 3 1021 0 1 SO 0 96.6 839
23:07:48 3 1021 0 3 W 0 96.6 844
23:10:48 3 1021 0 4 SO 0 96.6 852
23:13:48 3 1021 0 6 S 0 96.6 852
23:16:48 3 1021 0 10 N 0 96.6 855
23:19:47 2 1021 0 4 NW 0 96.6 855
23:22:46 2 1021 0 5 SW 0 96.6 852
23:25:47 2 1021 0 8 O 0 96.6 860
23:28:45 2 1021 0 2 S 0 96.6 855
23:31:49 2 1021 0 4 NW 0 96.6 866
23:34:47 2 1021 0 10 W 0 96.6 868
23:37:46 2 1021 0 6 SO 0 96.6 867
23:40:47 2 1021 0 8 W 0 96.6 865
23:43:45 2 1021 0 5 S 0 96.6 867
23:46:48 2 1021 0 8 W 0 96.6 870
23:49:49 2 1021 0 2 N 0 96.6 870
23:52:47 2 1021 0 3 0 96.6 873
23:55:46 2 1021 0 6 0 96.6 884
23:58:46 2 1021 0 6 W 0 96.6 884

Letzte Änderung : 22-Jul-2022
Copyright Jens Köhler, Wolfsburg, Obere Dorfstraße 10d